• In Czech Republic
  • List of Countries
  • For 7 days
  • Water Temperature
  • Satellite Maps
  • Weather Map
  • Weather Widgets
  • user-avatar
    Login

    Hourly Weather Rzeczka

    Today, 22 June, Friday

    Time Temperature Precipitation Wind Pressure Humidity
    00:00 +9°C° 0 mm 3 mps 724 mmHg 79%
    01:00 +9°C° 0 mm 1 mps 724 mmHg 78%
    02:00 +8°C° 0 mm 2 mps 724 mmHg 80%
    03:00 +7°C° 0 mm 2 mps 724 mmHg 82%
    04:00 +7°C° 0 mm 2 mps 724 mmHg 84%
    05:00 +8°C° 0 mm 3 mps 725 mmHg 79%
    06:00 +8°C° 0 mm 4 mps 725 mmHg 74%
    07:00 +11°C° 0 mm 4 mps 725 mmHg 67%
    08:00 +10°C° 0 mm 5 mps 725 mmHg 63%
    09:00 +12°C° 0 mm 5 mps 725 mmHg 60%
    10:00 +13°C° 0 mm 5 mps 725 mmHg 56%
    11:00 +13°C° 0.3 mm 5 mps 725 mmHg 59%
    12:00 +13°C° 0.3 mm 5 mps 725 mmHg 63%
    13:00 +13°C° 0.3 mm 5 mps 725 mmHg 66%
    14:00 +13°C° 0.3 mm 5 mps 725 mmHg 68%
    15:00 +13°C° 0.3 mm 5 mps 725 mmHg 69%
    16:00 +12°C° 0.3 mm 5 mps 725 mmHg 71%
    17:00 +12°C° 0.2 mm 4 mps 725 mmHg 74%
    18:00 +11°C° 0.2 mm 4 mps 725 mmHg 78%
    19:00 +11°C° 0.2 mm 3 mps 725 mmHg 81%
    20:00 +10°C° 0.1 mm 3 mps 725 mmHg 85%
    21:00 +9°C° 0.1 mm 3 mps 725 mmHg 88%
    22:00 +7°C° 0.1 mm 3 mps 725 mmHg 92%
    23:00 +7°C° 0 mm 3 mps 726 mmHg 93%

    Tomorrow, 23 June, Saturday

    Time Temperature Precipitation Wind Pressure Humidity
    00:00 +7°C° 0 mm 3 mps 726 mmHg 93%
    01:00 +7°C° 0 mm 3 mps 726 mmHg 94%
    02:00 +7°C° 0 mm 3 mps 726 mmHg 94%
    03:00 +7°C° 0 mm 3 mps 726 mmHg 94%
    04:00 +7°C° 0 mm 3 mps 726 mmHg 94%
    05:00 +7°C° 0 mm 4 mps 726 mmHg 91%
    06:00 +7°C° 0 mm 4 mps 726 mmHg 88%
    07:00 +8°C° 0 mm 5 mps 726 mmHg 86%
    08:00 +9°C° 0.1 mm 5 mps 726 mmHg 82%
    09:00 +9°C° 0.1 mm 5 mps 726 mmHg 78%
    10:00 +10°C° 0.1 mm 6 mps 727 mmHg 74%
    11:00 +10°C° 0 mm 6 mps 726 mmHg 72%
    12:00 +10°C° 0 mm 6 mps 726 mmHg 69%
    13:00 +11°C° 0 mm 6 mps 726 mmHg 67%
    14:00 +11°C° 0.1 mm 6 mps 726 mmHg 70%
    15:00 +10°C° 0.1 mm 6 mps 726 mmHg 73%
    16:00 +10°C° 0.1 mm 6 mps 726 mmHg 75%
    17:00 +10°C° 0 mm 5 mps 726 mmHg 78%
    18:00 +10°C° 0 mm 5 mps 726 mmHg 80%
    19:00 +10°C° 0 mm 5 mps 726 mmHg 82%
    20:00 +10°C° 0 mm 4 mps 726 mmHg 84%
    21:00 +8°C° 0 mm 4 mps 726 mmHg 87%
    22:00 +8°C° 0 mm 4 mps 726 mmHg 89%
    23:00 +9°C° 0 mm 3 mps 726 mmHg 91%

    Day after tomorrow, 24 June, Sunday

    Time Temperature Precipitation Wind Pressure Humidity
    00:00 +8°C° 0 mm 3 mps 726 mmHg 93%
    01:00 +8°C° 0 mm 3 mps 726 mmHg 95%
    02:00 +8°C° 0 mm 3 mps 726 mmHg 95%
    03:00 +8°C° 0 mm 2 mps 726 mmHg 96%
    04:00 +7°C° 0 mm 2 mps 726 mmHg 96%
    05:00 +9°C° 0 mm 2 mps 726 mmHg 93%
    06:00 +10°C° 0 mm 3 mps 726 mmHg 90%
    07:00 +11°C° 0 mm 3 mps 726 mmHg 86%
    08:00 +11°C° 0.1 mm 3 mps 726 mmHg 85%
    09:00 +12°C° 0.1 mm 3 mps 726 mmHg 83%
    10:00 +12°C° 0.1 mm 4 mps 727 mmHg 82%
    11:00 +13°C° 0.2 mm 4 mps 726 mmHg 79%
    12:00 +14°C° 0.2 mm 4 mps 726 mmHg 76%
    13:00 +15°C° 0.2 mm 4 mps 726 mmHg 73%
    14:00 +15°C° 0.2 mm 4 mps 726 mmHg 71%
    15:00 +15°C° 0.2 mm 4 mps 726 mmHg 70%
    16:00 +17°C° 0.2 mm 4 mps 726 mmHg 69%
    17:00 +16°C° 0.2 mm 3 mps 726 mmHg 72%
    18:00 +14°C° 0.2 mm 3 mps 726 mmHg 76%
    19:00 +14°C° 0.2 mm 2 mps 725 mmHg 80%
    20:00 +13°C° 0 mm 2 mps 726 mmHg 84%
    21:00 +10°C° 0 mm 2 mps 726 mmHg 88%
    22:00 +9°C° 0 mm 2 mps 726 mmHg 93%
    23:00 +9°C° 0 mm 2 mps 726 mmHg 93%

    25 June, Monday

    Time Temperature Precipitation Wind Pressure Humidity
    00:00 +8°C° 0 mm 2 mps 726 mmHg 94%
    01:00 +9°C° 0 mm 1 mps 726 mmHg 95%
    02:00 +9°C° 0 mm 1 mps 726 mmHg 95%
    03:00 +9°C° 0 mm 1 mps 726 mmHg 96%
    04:00 +8°C° 0 mm 1 mps 726 mmHg 96%
    05:00 +10°C° 0 mm 1 mps 727 mmHg 92%
    06:00 +12°C° 0 mm 1 mps 727 mmHg 88%
    07:00 +13°C° 0 mm 1 mps 727 mmHg 84%
    08:00 +15°C° 0.1 mm 1 mps 727 mmHg 78%
    09:00 +16°C° 0.1 mm 2 mps 728 mmHg 72%
    10:00 +17°C° 0.1 mm 2 mps 728 mmHg 67%
    11:00 +18°C° 0.2 mm 2 mps 728 mmHg 65%
    12:00 +18°C° 0.2 mm 2 mps 728 mmHg 63%
    13:00 +19°C° 0.2 mm 2 mps 727 mmHg 61%
    14:00 +19°C° 0.1 mm 2 mps 728 mmHg 60%
    15:00 +20°C° 0.1 mm 2 mps 728 mmHg 59%
    16:00 +20°C° 0.1 mm 2 mps 728 mmHg 59%
    17:00 +20°C° 0.1 mm 1 mps 728 mmHg 64%
    18:00 +19°C° 0.1 mm 1 mps 728 mmHg 69%
    19:00 +18°C° 0.1 mm 1 mps 728 mmHg 74%
    20:00 +16°C° 0 mm 1 mps 728 mmHg 77%
    21:00 +14°C° 0 mm 1 mps 728 mmHg 80%
    22:00 +13°C° 0 mm 1 mps 728 mmHg 84%
    23:00 +12°C° 0 mm 1 mps 728 mmHg 85%

    26 June, Tuesday

    Time Temperature Precipitation Wind Pressure Humidity
    00:00 +12°C° 0 mm 1 mps 728 mmHg 86%
    01:00 +11°C° 0 mm 1 mps 728 mmHg 87%
    02:00 +11°C° 0 mm 1 mps 728 mmHg 87%
    03:00 +11°C° 0 mm 1 mps 728 mmHg 88%
    04:00 +11°C° 0 mm 1 mps 728 mmHg 89%
    05:00 +13°C° 0 mm 1 mps 729 mmHg 84%
    06:00 +14°C° 0 mm 1 mps 729 mmHg 79%
    07:00 +16°C° 0 mm 1 mps 729 mmHg 75%
    08:00 +19°C° 0 mm 1 mps 729 mmHg 70%
    09:00 +20°C° 0 mm 1 mps 729 mmHg 65%
    10:00 +22°C° 0 mm 1 mps 730 mmHg 60%
    11:00 +22°C° 0.1 mm 1 mps 729 mmHg 59%
    12:00 +21°C° 0.1 mm 2 mps 729 mmHg 58%
    13:00 +23°C° 0.1 mm 2 mps 729 mmHg 57%
    14:00 +23°C° 0.1 mm 2 mps 729 mmHg 59%
    15:00 +22°C° 0.1 mm 3 mps 729 mmHg 60%
    16:00 +22°C° 0.1 mm 3 mps 728 mmHg 61%
    17:00 +21°C° 0.1 mm 2 mps 728 mmHg 66%
    18:00 +20°C° 0.1 mm 2 mps 728 mmHg 71%
    19:00 +19°C° 0.1 mm 2 mps 728 mmHg 75%
    20:00 +19°C° 0 mm 1 mps 728 mmHg 79%
    21:00 +16°C° 0 mm 1 mps 728 mmHg 82%
    22:00 +14°C° 0 mm 1 mps 728 mmHg 85%
    23:00 +14°C° 0 mm 1 mps 728 mmHg 85%

    27 June, Wednesday

    Time Temperature Precipitation Wind Pressure Humidity
    00:00 +14°C° 0 mm 1 mps 728 mmHg 86%
    01:00 +13°C° 0 mm 1 mps 728 mmHg 86%
    02:00 +13°C° 0 mm 1 mps 728 mmHg 87%
    03:00 +13°C° 0 mm 1 mps 728 mmHg 88%
    04:00 +13°C° 0 mm 1 mps 728 mmHg 89%
    05:00 +15°C° 0 mm 2 mps 729 mmHg 85%
    06:00 +16°C° 0 mm 2 mps 729 mmHg 81%
    07:00 +18°C° 0 mm 2 mps 729 mmHg 77%
    08:00 +19°C° 0 mm 3 mps 729 mmHg 70%
    09:00 +20°C° 0 mm 3 mps 729 mmHg 64%
    10:00 +22°C° 0 mm 4 mps 729 mmHg 57%
    11:00 +22°C° 0 mm 4 mps 729 mmHg 53%
    12:00 +23°C° 0 mm 4 mps 729 mmHg 49%
    13:00 +23°C° 0 mm 5 mps 729 mmHg 46%
    14:00 +23°C° 0 mm 5 mps 729 mmHg 47%
    15:00 +23°C° 0 mm 5 mps 729 mmHg 48%
    16:00 +23°C° 0 mm 5 mps 728 mmHg 49%
    17:00 +22°C° 0 mm 4 mps 728 mmHg 56%
    18:00 +21°C° 0 mm 3 mps 728 mmHg 62%
    19:00 +20°C° 0 mm 2 mps 728 mmHg 68%
    20:00 +18°C° 0 mm 2 mps 728 mmHg 71%
    21:00 +18°C° 0 mm 1 mps 728 mmHg 74%
    22:00 +15°C° 0 mm 1 mps 729 mmHg 77%
    23:00 +15°C° 0 mm 1 mps 729 mmHg 79%
    Show more